Find Starlink 35760

NORAD ID: 66274 Int'l Des: 2025-247 Owner: SPXS Country: US Constellation: starlink operational
LEOCIRCULAR

Aktuelle Ansicht

3D-Globus wird geladen...

Über Starlink 35760

Beschreibung wird geladen...

Nächste Überflüge

Passes for default location (London). Set your location on the main map for personalized predictions.

Höhenverlauf

Loading altitude history...

Zweizeiliger Elementsatz

1 66274U 25247K 26149.37117444 .00010619 00000-0 37008-3 0 9996
2 66274 53.1574 176.8781 0001017 82.6897 277.4220 15.30205004 33380
Epoch: 29. Mai 2026 • Age: 15 hours

Aktueller Status

Höhe 490.4 km
Geschwindigkeit 7.62 km/s
Subsatellitenpunkt -43.55°S, 123.63°W
Startdatum 31. Okt. 2025
Alter 0.5 years
Typ internet

Technische Details

Klassifizierung Payload
Masse 575.00 kg
Trockenmasse 530.00 kg
Gesamtmasse 575.00 kg
Länge 0.30 m
Durchmesser 4.10 m
Spannweite 29.00 m
Form Box + pan
Hersteller SPXS
Bus-Typ Starlink V2MO
Phasenstatus In Orbit
Besitzer/Staat SPXS/US

Most Searched